Content
SEND FEEDBACK

Daily
Averages
Monthly
Summary
Mexico

CANCUN, QUINTANA ROO


Home > North America > Mexico > Quintana Roo
Elevation: 9 meters     Latitude: 21 09N     Longitude: 086 49W

WEATHER
 
SELECT A DAY
Number of Records: 166,452;   Date Range: 1/1/95 - 10/24/14
 
SHARE

PRINT THIS DATA

[ ← Previous Day ]
WEATHER ALMANAC - 16 MARCH, 2013
[ Next Day → ]
[ °F ]   °C
Weather ElementAverageHighLow
Temperature22.5 °C27 °C (10:43 am)15 °C (1:48 am)
Dewpoint16.6 °C18 °C (1:40 pm)13 °C (1:48 am)
Humidity70.3 %94 % (4:47 am)51 % (10:43 am)
Barometer1017.6 hPa1019.6 hPa (8:41 am)1015.2 hPa (3:44 pm)
Wind Speed12.9 km/h25.9 km/h (2:45 pm)
Wind Gust44.4 km/h (10:43 am)
Weather ElementAverage
Visibility11.3 km
Wind DirectionESE (95.7 °)

Weather ElementTotal
Precipitation---
Cooling Degree Days2.7 (Base 18.3)
Growing Degree Days11 (Base 10)
Averaged from 23 records on 16 March, 2013
WEATHER CONDITIONS BREAKOUT
WIND DIRECTION BREAKOUT
WEATHER BY HOUR - 16 MARCH, 2013
[ °F ]   °C
Local TimeTemperatureDewpointHumidityBarometerVisibilityWind DirectionWind SpeedGust SpeedPrecipitationEventsConditions
1:48 AM15 °C13 °C88 %1018.3 hPa11.3 kmCalmPartly Cloudy
2:40 AM15 °C13 °C88 %1017.9 hPa11.3 kmWNW (300°)3.7 km/hScattered Clouds
3:40 AM15 °C13 °C88 %1017.9 hPa11.3 kmCalmPartly Cloudy
4:47 AM15 °C14 °C94 %1017.9 hPa11.3 kmNE (40°)3.7 km/hScattered Clouds
5:41 AM16 °C14 °C88 %1017.9 hPa11.3 kmNE (50°)7.4 km/hScattered Clouds
6:46 AM19 °C16 °C83 %1019 hPa11.3 kmENE (70°)5.6 km/hScattered Clouds
7:42 AM24 °C16 °C61 %1019 hPa11.3 kmEast (80°)16.7 km/hScattered Clouds
8:41 AM25 °C17 °C61 %1019.6 hPa11.3 kmEast (80°)14.8 km/hMostly Cloudy
9:41 AM25 °C17 °C61 %1019.3 hPa11.3 kmESE (110°)13 km/hScattered Clouds
10:43 AM27 °C16 °C51 %1019.3 hPa11.3 kmESE (120°)22.2 km/h44.4 km/hScattered Clouds
11:45 AM26 °C17 °C57 %1018.6 hPa11.3 kmEast (90°)20.4 km/hScattered Clouds
12:42 PM26 °C17 °C57 %1017.6 hPa11.3 kmESE (120°)18.5 km/hMostly Cloudy
1:40 PM26 °C18 °C61 %1016.9 hPa11.3 kmESE (110°)20.4 km/hMostly Cloudy
2:45 PM25 °C18 °C65 %1016.6 hPa11.3 kmSE (130°)25.9 km/hMostly Cloudy
3:44 PM26 °C18 °C61 %1015.2 hPa11.3 kmEast (100°)13 km/hScattered Clouds
4:42 PM24 °C18 °C69 %1016.3 hPa11.3 kmENE (70°)13 km/hMostly Cloudy
5:46 PM24 °C18 °C69 %1016.6 hPa11.3 kmEast (80°)11.1 km/hScattered Clouds
6:43 PM24 °C18 °C69 %1016.6 hPa11.3 kmESE (120°)11.1 km/hScattered Clouds
7:48 PM24 °C18 °C69 %1016.9 hPa11.3 kmESE (120°)11.1 km/hScattered Clouds
8:40 PM24 °C18 °C69 %1016.9 hPa11.3 kmESE (120°)13 km/hScattered Clouds
9:48 PM24 °C18 °C69 %1017.3 hPa11.3 kmESE (110°)13 km/hScattered Clouds
10:47 PM24 °C18 °C69 %1016.9 hPa11.3 kmENE (60°)20.4 km/hPartly Cloudy
11:46 PM24 °C18 °C69 %1016.3 hPa11.3 kmESE (120°)18.5 km/hClear
Hourly data recorded from MMUN, located 0 kilometers away from Cancun, Quintana Roo







STORIES FROM OUR PARTNERS